ONEWEB-0719 (55179 NORAD) Tracking and Keplerian Element Data

This shows tracking and keplerian element data for the satellite.

Feedback or suggestion? Click here.




ElementValue
Catalog55179
NameONEWEB-0719
Epoch Orbit130
Epoch Day13.91667824
Epoch Year2023
RAAN284.141
Inclination86.5108
Eccentricity0.001057
Argument of Perigee199.7063
Mean Anonmoly66.6929
Mean Motion14.91014083
Decay Rate-0.00049506
L11 55179U 23004AR 23013.91667824 -.00049506 00000+0 -50477-2 0 9998
L22 55179 86.5108 284.1410 0010570 199.7063 66.6929 14.91014083 1308



Live tracking and technical data element details for ONEWEB-0719 (NORAD 55179). ONEWEB-0719 can be tracked NOW for your location showing map with azimuth and elevation plus other details from your city location.







IsCatalogInMostPopularTable: catalog: 55179, numindb: 4
Update: records affected: 1



GetName: 55179 ONEWEB-0719

Hit Count: updated at: Tue, 07 Feb 2023 15:41:03 GMT